Regional Weather Roundup
Issued by NWS Columbia, SC

Home | Current Version | Previous Version | Text Only | Print | Product List | Glossary On
Versions: 1 2 3 4 5 6 7 8 9 10 11 12 13 14 15 16 17 18 19 20 21 22 23 24 25 26 27 28 29 30 31 32 33 34 35 36 37 38 39 40 41 42 43 44 45 46 47 48 49 50
000
ASUS42 KCAE 201510
RWRCAE
REGIONAL WEATHER ROUNDUP
NATIONAL WEATHER SERVICE COLUMBIA SC
1100 AM EDT WED AUG 20 2014

NOTE: "FAIR" INDICATES FEW OR NO CLOUDS BELOW 12,000 FEET WITH NO
SIGNIFICANT WEATHER AND/OR OBSTRUCTIONS TO VISIBILITY.

NOT ALL STATIONS ARE QUALITY CONTROLLED BY THE NATIONAL
WEATHER SERVICE. USE DATA WITH CAUTION...ESPECIALLY
DEWPOINT OBSERVATIONS.

SCZ001>056-GAZ040-063>065-077-201600-
...UPSTATE SOUTH CAROLINA...

CITY           SKY/WX    TMP DP  RH WIND       PRES   REMARKS
ANDERSON       SUNNY     83  69  62 SW5       30.04R
LIBERTY        FAIR      83  83 100 SW3       30.04R HX 100
SPARTANBURG    FAIR      86  72  62 CALM      30.03R
CLEMSON        SUNNY     84  68  58 S3        30.05R
GREENVILLE     MOSUNNY   84  68  58 CALM      30.05R
GREENWOOD      MOSUNNY   86  69  56 W5        30.05R
GREER          MOSUNNY   84  71  65 S3        30.03R
ROCK HILL      SUNNY     83  72  69 VRB5      30.03R
CHESTER        FAIR      84  70  61 E5        30.03R
LAURENS        FAIR      82  63  51 CALM      30.04R


...CENTRAL SOUTH CAROLINA...

CITY           SKY/WX    TMP DP  RH WIND       PRES   REMARKS
COLUMBIA APT   MOSUNNY   87  72  60 CALM      30.00R
COLUMBIA OWENS SUNNY     85  71  63 VRB6      30.02R
DARLINGTON     SUNNY     82  73  74 CALM      30.01R
FLORENCE       SUNNY     85  72  65 S5        29.99R
MCENTIRE ANGB  MOSUNNY   84  73  70 NW6       30.01R
ORANGEBURG     SUNNY     84  71  65 NW6       30.01R
SUMTER SHAW    SUNNY     85  73  68 VRB1      30.00R
NEWBERRY       FAIR      84  70  61 E5        30.05R
AIKEN          FAIR      86  73  66 CALM      30.06R
BARNWELL       FAIR      84  73  70 W6        30.03R
MANNING        FAIR      84  77  79 SW3       30.00R
CAMDEN         FAIR      84  72  65 CALM      30.02R
LANCASTER      FAIR      82  75  78 NW6       30.03R
WINNSBORO      FAIR      81  73  78 N3        30.03R


...EASTERN AND COASTAL SOUTH CAROLINA...

CITY           SKY/WX    TMP DP  RH WIND       PRES   REMARKS
MYRTLE BEACH   MOSUNNY   88  73  62 E6        29.99R HX  96
N MYRTLE BCH   SUNNY     83  76  79 S7        29.99R
CONWAY         FAIR      84  73  70 CALM      29.99S
MARION         FAIR      82  72  69 CALM      30.00R
HARTSVILLE     FAIR      86  57  37 CALM      30.02R
FLORENCE       SUNNY     85  72  65 S5        29.99R
DARLINGTON     SUNNY     82  73  74 CALM      30.01R
CHARLESTON APT MOSUNNY   87  74  64 SW5       30.01R HX  95
MOUNT PLEASANT FAIR      88  73  62 W7        30.00S HX  96
WALTERBORO     SUNNY     86  72  62 W7        30.02S
BEAUFORT       MOSUNNY   85  73  67 NW9       30.02R


...EASTERN GEORGIA...

CITY           SKY/WX    TMP DP  RH WIND       PRES   REMARKS
AUGUSTA BUSH F SUNNY     85  71  63 W3        30.02R
AUGUSTA DANIEL SUNNY     86  71  60 VRB6      30.04R
THOMSON        SUNNY     87  77  72 W6        30.08R HX  99
WASHINGTON     FAIR      88  75  66 W5        30.04R HX  97
CLAXTON        FAIR      86  77  74 CALM      30.05S HAZE    HX  97
SYLVANIA       SUNNY     85  76  75 W5        30.04S HX  95
STATESBORO     SUNNY     84  76  77 W7        30.04S
SAVANNAH       MOSUNNY   85  73  67 W6        30.04R


...SOUTHERN NORTH CAROLINA...

CITY           SKY/WX    TMP DP  RH WIND       PRES   REMARKS
CHARLOTTE      MOSUNNY   84  70  62 E6        30.02S
MONROE         MOSUNNY   84  72  67 N6        30.03R
WADESBORO      SUNNY     81  75  82 CALM      30.01R HAZE
ROCKINGHAM       N/A     82  74  75 CALM      30.01R
RUTHERFORDTON  SUNNY     82  69  66 CALM      30.05S
ASHEVILLE      SUNNY     79  67  66 NW5       30.11R

$$


USA.gov is the U.S. government's official web portal to all federal, state and local government web resources and services.